sat.trackr.live / text

‹ back to catalog

BEIDOU-3 M1 (C19)

NORAD 43001 · 2017-069A

PAYLOAD ACTIVE UNKNOWN

§ Identity

Operator
Country
PRC
Launch date
2017-11-05
Launch site
XICLF
Launch vehicle
Mass (kg)
RCS (m²)

Purposes: nav

External: N2YO · Heavens-Above · Gunter

§ Orbital elements

Epoch: 2026-09-19T15:17:31.833600Z

Period
773.23 min
Inclination
56.7791°
Eccentricity
0.0007184
Mean motion
1.86231322 rev/d
Perigee alt
21,508.0 km
Apogee alt
21,548.1 km
Semi-major
27,906.2 km
B*
0.0000e+0
RAAN
59.9784°
Arg perigee
321.3049°
Mean anomaly
38.6640°
Rev number
6,036

§ Raw data

BEIDOU-3 M1 (C19)1 43001U 17069A   26262.63717400 -.00000010  00000+0  00000+0 0  99972 43001  56.7791  59.9784 0007184 321.3049  38.6640  1.86231322 60369

JSON: /api/v1/satellites/43001 · /tle

For live sub-satellite position, see the globe view (requires WebGL).

§ Visibility from observer

Set your observer location to see the next 7 days of passes ≥ 10°. The values pass through the URL so the page stays shareable.

No JS? Fill the form by hand. The geolocation button needs JavaScript.